User: anonymous   Login
Location: アルンシュタイン
(50.0000°N, 10.0000°E)
Time: 05:13:17
(UTC+01:00)
Language:

HuskySat-1 - Orbit

View from above orbital plane
View from above orbital plane
View from above satellite
View from above satellite

Ground track
Ground track

The orbit data is extracted from the following two-line orbital elements,

1 45117U 19071G   22024.59946403  .00009707  00000-0  24918-3 0  9996
2 45117  51.6402  40.2535 0009595  19.1491 340.9853 15.39949710111216
Epoch (UTC): 24 January 2022 14:23:13
Eccentricity: 0.0009595
inclination: 51.6402°
perigee height: 440 km
apogee height: 453 km
right ascension of ascending node: 40.2535°
argument of perigee: 19.1491°
revolutions per day: 15.39949710
mean anomaly at epoch: 340.9853°
orbit number at epoch: 11121

The dashed part of the orbit path shows where the satellite is in the earth's shadow,  

DLR